EW1382 Weather Reports


Display with metric or nautical units.
time (UTC)temp
F
wind
direction
speed
MPH
gust
MPH
rain 1hr
in
rain 24hr
in
rain mn
in
humidity
%
barometer
mb
20170624190325 76 335 3.0 8.0 0.00 0.57 0.28 59 1007.7
20170624184831 78 333 3.0 9.0 0.00 0.57 0.28 58 1007.5
20170624183320 77 348 2.0 8.0 0.00 0.57 0.28 61 1007.5
20170624181829 77 338 4.0 9.0 0.00 0.57 0.28 60 1007.4
20170624180333 76 278 4.0 8.0 0.00 0.57 0.28 57 1007.4
20170624164824 78 333 2.0 11.0 0.00 0.57 0.28 57 1007.0
20170624163315 77 120 2.0 10.0 0.00 0.57 0.28 54 1007.0
20170624161820 77 319 4.0 14.0 0.00 0.57 0.28 56 1007.0
20170624160332 77 222 6.0 16.0 0.00 0.57 0.28 57 1006.7
20170624154832 77 259 4.0 9.0 0.00 0.57 0.28 56 1006.8
20170624153321 76 288 4.0 10.0 0.00 0.57 0.28 57 1006.7
20170624151829 76 307 4.0 14.0 0.00 0.57 0.28 57 1006.6
20170624150316 76 295 5.0 12.0 0.00 0.57 0.28 56 1006.5
20170624144824 75 307 4.0 11.0 0.00 0.57 0.28 58 1006.1
20170624143332 75 349 3.0 8.0 0.00 0.57 0.28 62 1005.9
20170624141823 74 305 1.0 10.0 0.00 0.57 0.28 64 1005.8
20170624140329 73 264 3.0 6.0 0.00 0.57 0.28 63 1005.8
20170624134827 72 30 5.0 11.0 0.00 0.57 0.28 67 1005.6
20170624133315 71 281 4.0 10.0 0.00 0.57 0.28 67 1005.6
20170624131816 71 70 3.0 12.0 0.00 0.57 0.28 73 1005.3
20170624130326 70 304 4.0 9.0 0.00 0.57 0.28 74 1005.3
20170624124815 69 276 5.0 10.0 0.00 0.57 0.28 74 1004.9
20170624123325 68 253 2.0 8.0 0.00 0.57 0.28 78 1004.8
20170624121814 67 312 5.0 14.0 0.00 0.57 0.28 80 1004.7
20170624120322 67 297 2.0 11.0 0.00 0.57 0.28 84 1004.5
20170624114831 66 322 3.0 6.0 0.00 0.57 0.28 86 1004.3
20170624113320 66 266 1.0 4.0 0.00 0.57 0.28 89 1004.2
20170624111825 65 273 2.0 5.0 0.00 0.57 0.28 92 1004.2
20170624110318 65 268 2.0 6.0 0.00 0.57 0.28 94 1004.0
20170624104822 64 276 2.0 6.0 0.00 0.57 0.28 94 1003.9
20170624103316 64 238 0.0 3.0 0.00 0.57 0.28 94 1003.8
20170624101821 64 288 0.0 2.0 0.00 0.57 0.28 94 1003.7
20170624100314 64 257 1.0 4.0 0.00 0.57 0.28 94 1003.3
20170624094818 64 267 1.0 2.0 0.00 0.57 0.28 94 1002.8
20170624093329 64 303 0.0 4.0 0.00 0.57 0.28 94 1002.7
20170624091837 65 296 0.0 4.0 0.00 0.57 0.28 95 1002.5
20170624090322 65 312 0.0 0.0 0.00 0.57 0.28 95 1002.2
20170624084831 65 240 0.0 0.0 0.01 0.57 0.28 95 1002.0
20170624083320 65 234 1.0 4.0 0.02 0.57 0.28 95 1001.9
20170624081824 66 236 0.0 5.0 0.05 0.57 0.28 95 1001.9
20170624080316 66 278 0.0 3.0 0.08 0.56 0.27 95 1001.7
20170624074823 66 288 1.0 2.0 0.22 0.56 0.27 95 1001.6
20170624073336 66 222 0.0 0.0 0.24 0.55 0.26 94 1001.7
20170624071816 66 243 1.0 6.0 0.22 0.52 0.23 94 1001.5
20170624070325 67 25 2.0 8.0 0.17 0.47 0.18 93 1001.3
20170624064815 68 278 2.0 9.0 0.05 0.34 0.05 94 1001.3
20170624063325 70 324 3.0 6.0 0.02 0.31 0.02 94 1000.9
20170624061813 70 285 0.0 0.0 0.01 0.30 0.01 95 1000.7
20170624060323 70 239 0.0 0.0 0.01 0.30 0.01 95 1000.8
20170624054828 71 231 0.0 0.0 0.00 0.29 0.00 95 1001.0
20170624053316 71 212 0.0 0.0 0.00 0.29 0.00 95 1001.0
20170624051816 71 224 0.0 4.0 0.00 0.29 0.00 95 1000.7
20170624050331 71 248 0.0 3.0 0.00 0.29 0.00 95 1000.9
20170624044815 71 277 0.0 5.0 0.00 0.29 0.00 95 1000.9
20170624043329 71 247 0.0 0.0 0.00 0.29 0.00 95 1000.7
20170624041823 71 271 0.0 0.0 0.00 0.29 0.00 95 1001.0
20170624040331 71 210 0.0 0.0 0.00 0.29 0.00 95 1000.8
20170624034820 71 208 0.0 0.0 0.00 0.29 0.29 94 1000.9
20170624033331 71 225 0.0 1.0 0.00 0.29 0.29 94 1000.9
20170624031817 72 238 1.0 5.0 0.00 0.29 0.29 94 1000.8
20170624030323 72 300 3.0 6.0 0.00 0.29 0.29 94 1001.2
20170624024828 72 197 1.0 4.0 0.00 0.29 0.29 94 1001.1
20170624023321 72 233 2.0 6.0 0.04 0.29 0.29 94 1001.2
20170624021819 72 285 0.0 5.0 0.05 0.29 0.29 94 1001.0
20170624020314 72 202 1.0 7.0 0.05 0.29 0.29 94 1000.7
20170624014817 72 194 0.0 3.0 0.05 0.29 0.29 94 1000.6
20170624013331 72 276 0.0 0.0 0.02 0.25 0.25 94 1000.2
20170624011816 72 266 0.0 3.0 0.12 0.24 0.24 94 1000.0
20170624010320 72 174 2.0 4.0 0.20 0.24 0.24 93 1000.0
20170624004830 73 289 3.0 6.0 0.24 0.24 0.24 93 1000.1
20170624003319 73 168 2.0 4.0 0.22 0.22 0.22 92 999.9
20170624001825 73 291 2.0 7.0 0.10 0.10 0.10 91 1000.0
20170624000315 74 290 2.0 5.0 0.04 0.04 0.04 88 999.8
20170623234818 75 220 0.0 3.0 0.00 0.00 0.00 86 999.6
20170623233331 77 251 1.0 8.0 0.00 0.00 0.00 82 999.6
20170623231831 78 291 3.0 6.0 0.00 0.00 0.00 79 999.5
20170623230324 78 131 2.0 7.0 0.00 0.00 0.00 78 999.3
20170623224828 78 247 0.0 5.0 0.00 0.00 0.00 78 999.3
20170623223322 78 185 2.0 8.0 0.00 0.00 0.00 78 999.1
20170623221822 78 237 3.0 10.0 0.00 0.00 0.00 78 999.1
20170623220332 78 201 3.0 7.0 0.00 0.00 0.00 77 999.0
20170623214821 78 154 4.0 7.0 0.00 0.00 0.00 77 999.2
20170623213330 78 201 3.0 5.0 0.00 0.00 0.00 76 999.2
20170623211819 78 122 3.0 9.0 0.00 0.00 0.00 76 999.4
20170623210330 78 240 2.0 9.0 0.00 0.00 0.00 76 999.6
20170623204815 79 153 5.0 12.0 0.00 0.00 0.00 76 999.8
20170623203328 79 190 5.0 11.0 0.00 0.00 0.00 76 999.8
20170623201813 79 165 5.0 12.0 0.00 0.00 0.00 75 1000.0
20170623200326 79 208 6.0 11.0 0.00 0.00 0.00 75 1000.3
20170623193326 79 193 2.0 8.0 0.00 0.00 0.00 77 1000.3
20170623191824 79 223 2.0 6.0 0.00 0.00 0.00 78 1000.6